SAS2949 ESSA-LEZL

Flight info

Callsign SAS2949
Flight time 3h 49m
Altitude 36000
Route PETEV N872 ELPAX DCT ASVAN DCT DOSUR DCT WANZA DCT GISEB DCT WOODY/N0440F370 N872 MEDIL DCT KOVIN DCT DUCRA UM728 RESMI UN857 DISAK DCT DIRMO DCT ARTAX DCT BEBIX DCT LMG DCT UVELI DCT OSMOB DCT VAVIX DCT NETUK N857 HIJ
Aircraft A320/M-SDE3FGHIJ1RWXYZ/ALB1

Departure

Time 2026-04-14 06:42
Airport Stockholm-Arlanda Airport (ESSA)

Arrival

Time 2026-04-14 10:31
Airport Seville Airport (LEZL)
Time Latitude Longitude Altitude Speed Heading
2026-04-14 06:28 59.65290 17.92961 112 ft 0 kts 70°
2026-04-14 06:34 59.65288 17.92955 111 ft 3 kts 70°
2026-04-14 06:34 59.65283 17.92922 110 ft 4 kts 70°
2026-04-14 06:35 59.65273 17.92872 112 ft 4 kts 70°
2026-04-14 06:35 59.65264 17.92822 112 ft 4 kts 70°
2026-04-14 06:35 59.65258 17.92785 110 ft 0 kts 70°
2026-04-14 06:38 59.65262 17.92796 111 ft 4 kts 51°
2026-04-14 06:38 59.65300 17.92774 111 ft 7 kts 328°
2026-04-14 06:38 59.65350 17.92713 112 ft 10 kts 330°
2026-04-14 06:38 59.65417 17.92639 110 ft 13 kts 331°
2026-04-14 06:39 59.65518 17.92540 105 ft 19 kts 337°
2026-04-14 06:39 59.65661 17.92462 103 ft 23 kts 346°
2026-04-14 06:39 59.65820 17.92441 106 ft 24 kts
2026-04-14 06:39 59.65983 17.92501 109 ft 24 kts 11°
2026-04-14 06:40 59.66150 17.92561 112 ft 25 kts 10°
2026-04-14 06:40 59.66317 17.92622 116 ft 24 kts 10°
2026-04-14 06:40 59.66479 17.92643 121 ft 24 kts 344°
2026-04-14 06:40 59.66605 17.92538 123 ft 19 kts 313°
2026-04-14 06:41 59.66563 17.92351 123 ft 12 kts 187°
2026-04-14 06:41 59.66537 17.92342 123 ft 0 kts 189°
2026-04-14 06:41 59.66512 17.92333 121 ft 23 kts 192°
2026-04-14 06:41 59.66108 17.92185 119 ft 92 kts 190°
2026-04-14 06:42 59.65289 17.91887 105 ft 145 kts 190°
2026-04-14 06:42 59.64194 17.91476 359 ft 163 kts 187°
2026-04-14 06:42 59.63092 17.91021 1024 ft 161 kts 187°
2026-04-14 06:42 59.62010 17.90548 1655 ft 161 kts 187°
2026-04-14 06:43 59.60945 17.89393 1859 ft 195 kts 224°
2026-04-14 06:43 59.60128 17.87014 2130 ft 222 kts 234°
2026-04-14 06:43 59.59327 17.84311 2738 ft 232 kts 236°
2026-04-14 06:43 59.58528 17.81521 3527 ft 235 kts 237°
2026-04-14 06:44 59.57764 17.78608 3986 ft 255 kts 239°
2026-04-14 06:44 59.56956 17.75378 4605 ft 267 kts 239°
2026-04-14 06:44 59.55896 17.72392 5437 ft 266 kts 223°
2026-04-14 06:44 59.54639 17.69690 6302 ft 269 kts 222°
2026-04-14 06:45 59.53343 17.66997 7146 ft 272 kts 221°
2026-04-14 06:45 59.52023 17.64298 7940 ft 275 kts 220°
2026-04-14 06:45 59.50682 17.61570 8733 ft 279 kts 220°
2026-04-14 06:45 59.49324 17.58813 9529 ft 282 kts 220°
2026-04-14 06:46 59.46543 17.53180 10818 ft 299 kts 220°
2026-04-14 06:46 59.45039 17.50145 10986 ft 321 kts 221°
2026-04-14 06:46 59.43448 17.46933 11408 ft 332 kts 221°
2026-04-14 06:47 59.41825 17.43646 12029 ft 337 kts 221°
2026-04-14 06:47 59.40185 17.40308 12689 ft 341 kts 222°
2026-04-14 06:47 59.38529 17.36939 13345 ft 345 kts 222°
2026-04-14 06:47 59.36853 17.33537 13995 ft 349 kts 222°
2026-04-14 06:48 59.35156 17.30104 14593 ft 352 kts 222°
2026-04-14 06:48 59.33435 17.26640 15143 ft 356 kts 222°
2026-04-14 06:48 59.31694 17.23151 15692 ft 360 kts 223°
2026-04-14 06:48 59.29933 17.19626 16218 ft 364 kts 224°
2026-04-14 06:49 59.28151 17.16058 16749 ft 368 kts 224°
2026-04-14 06:49 59.26351 17.12457 17286 ft 372 kts 224°
2026-04-14 06:49 59.24530 17.08820 17811 ft 377 kts 224°
2026-04-14 06:49 59.22684 17.05137 18311 ft 382 kts 225°
2026-04-14 06:50 59.20811 17.01438 18853 ft 385 kts 223°
2026-04-14 06:50 59.18775 16.98042 19396 ft 387 kts 219°
2026-04-14 06:50 59.16697 16.94662 19881 ft 391 kts 219°
2026-04-14 06:50 59.14596 16.91254 20352 ft 395 kts 219°
2026-04-14 06:51 59.12479 16.87824 20902 ft 397 kts 219°
2026-04-14 06:51 59.10350 16.84376 21448 ft 399 kts 219°
2026-04-14 06:51 59.08213 16.80915 21995 ft 400 kts 218°
2026-04-14 06:51 59.06084 16.77467 22681 ft 397 kts 219°
2026-04-14 06:52 59.03955 16.74026 23238 ft 399 kts 219°
2026-04-14 06:52 59.01816 16.70579 23739 ft 401 kts 218°
2026-04-14 06:52 58.99662 16.67120 24200 ft 403 kts 218°
2026-04-14 06:52 58.97498 16.63653 24606 ft 405 kts 217°
2026-04-14 06:53 58.95325 16.60175 25008 ft 406 kts 219°
2026-04-14 06:53 58.93139 16.56681 25414 ft 408 kts 219°
2026-04-14 06:53 58.90950 16.53183 25845 ft 408 kts 218°
2026-04-14 06:53 58.88757 16.49685 26225 ft 410 kts 218°
2026-04-14 06:54 58.86551 16.46175 26607 ft 411 kts 219°
2026-04-14 06:54 58.84337 16.42662 26981 ft 413 kts 219°
2026-04-14 06:54 58.82150 16.39192 27430 ft 412 kts 219°
2026-04-14 06:54 58.79928 16.35672 27783 ft 414 kts 219°
2026-04-14 06:55 58.77696 16.32147 28086 ft 417 kts 219°
2026-04-14 06:55 58.75451 16.28612 28457 ft 418 kts 219°
2026-04-14 06:55 58.73196 16.25064 28847 ft 419 kts 219°
2026-04-14 06:55 58.70934 16.21510 29160 ft 421 kts 219°
2026-04-14 06:56 58.68655 16.17936 29478 ft 423 kts 219°
2026-04-14 06:56 58.66369 16.14353 29847 ft 424 kts 219°
2026-04-14 06:56 58.64075 16.10763 30169 ft 427 kts 219°
2026-04-14 06:56 58.61773 16.07172 30614 ft 426 kts 219°
2026-04-14 06:57 58.59477 16.03596 31013 ft 425 kts 219°
2026-04-14 06:57 58.57189 16.00035 31436 ft 423 kts 219°
2026-04-14 06:57 58.54903 15.96484 31829 ft 422 kts 219°
2026-04-14 06:57 58.52621 15.92946 32180 ft 422 kts 219°
2026-04-14 06:58 58.50346 15.89428 32582 ft 420 kts 219°
2026-04-14 06:58 58.48072 15.85927 32996 ft 419 kts 219°
2026-04-14 06:58 58.45799 15.82436 33382 ft 419 kts 219°
2026-04-14 06:58 58.43530 15.78957 33786 ft 418 kts 219°
2026-04-14 06:59 58.41268 15.75486 34214 ft 416 kts 219°
2026-04-14 06:59 58.39016 15.72026 34561 ft 416 kts 219°
2026-04-14 06:59 58.36767 15.68568 34885 ft 415 kts 219°
2026-04-14 06:59 58.34557 15.65177 35262 ft 413 kts 218°
2026-04-14 07:00 58.32324 15.61764 35592 ft 411 kts 218°
2026-04-14 07:00 58.30095 15.58366 35871 ft 411 kts 218°
2026-04-14 07:00 58.27866 15.54977 36134 ft 411 kts 218°
2026-04-14 07:00 58.25630 15.51586 36330 ft 411 kts 218°
2026-04-14 07:01 58.23384 15.48182 36374 ft 415 kts 218°
2026-04-14 07:01 58.18845 15.41316 36361 ft 418 kts 218°
2026-04-14 07:02 58.14291 15.34444 36363 ft 419 kts 218°
2026-04-14 07:02 58.09724 15.27596 36347 ft 418 kts 218°
2026-04-14 07:03 58.05307 15.20452 36358 ft 418 kts 221°
2026-04-14 07:03 58.01065 15.12944 36355 ft 418 kts 222°
2026-04-14 07:04 57.96816 15.05453 36363 ft 418 kts 221°
2026-04-14 07:04 57.92509 14.98086 36346 ft 418 kts 221°
2026-04-14 07:05 57.88179 14.90776 36351 ft 418 kts 221°
2026-04-14 07:05 57.83849 14.83481 36359 ft 418 kts 221°
2026-04-14 07:06 57.79519 14.76183 36343 ft 418 kts 221°
2026-04-14 07:06 57.75190 14.68895 36351 ft 418 kts 220°
2026-04-14 07:07 57.70863 14.61636 36344 ft 417 kts 220°
2026-04-14 07:07 57.66535 14.54415 36325 ft 417 kts 220°
2026-04-14 07:08 57.62211 14.47219 36341 ft 416 kts 220°
2026-04-14 07:08 57.57891 14.40050 36327 ft 416 kts 220°
2026-04-14 07:09 57.53598 14.32954 36296 ft 415 kts 220°
2026-04-14 07:09 57.49274 14.25834 36286 ft 415 kts 220°
2026-04-14 07:10 57.44947 14.18735 36270 ft 415 kts 220°
2026-04-14 07:10 57.40619 14.11652 36270 ft 415 kts 220°
2026-04-14 07:11 57.36287 14.04577 36297 ft 415 kts 220°
2026-04-14 07:11 57.31917 13.97480 36291 ft 415 kts 220°
2026-04-14 07:12 57.27604 13.90489 36268 ft 415 kts 220°
2026-04-14 07:12 57.23258 13.83451 36257 ft 415 kts 220°
2026-04-14 07:13 57.18903 13.76440 36262 ft 415 kts 219°
2026-04-14 07:13 57.14546 13.69461 36274 ft 415 kts 219°
2026-04-14 07:14 57.10195 13.62506 36269 ft 414 kts 219°
2026-04-14 07:14 57.05849 13.55582 36253 ft 413 kts 219°
2026-04-14 07:15 57.01506 13.48670 36249 ft 413 kts 219°
2026-04-14 07:15 56.97164 13.41785 36236 ft 413 kts 219°
2026-04-14 07:16 56.92818 13.34918 36236 ft 412 kts 219°
2026-04-14 07:16 56.88473 13.28072 36231 ft 412 kts 219°
2026-04-14 07:17 56.84128 13.21252 36223 ft 412 kts 219°
2026-04-14 07:17 56.79781 13.14460 36221 ft 411 kts 219°
2026-04-14 07:18 56.75432 13.07677 36184 ft 411 kts 219°
2026-04-14 07:18 56.71081 13.00910 36179 ft 411 kts 219°
2026-04-14 07:19 56.66729 12.94164 36183 ft 411 kts 219°
2026-04-14 07:19 56.62375 12.87439 36182 ft 410 kts 219°
2026-04-14 07:20 56.58026 12.80730 36205 ft 410 kts 218°
2026-04-14 07:20 56.53712 12.74108 36196 ft 409 kts 218°
2026-04-14 07:21 56.49368 12.67472 36186 ft 408 kts 218°
2026-04-14 07:21 56.45025 12.60848 36187 ft 408 kts 218°
2026-04-14 07:22 56.40692 12.54245 36183 ft 407 kts 218°
2026-04-14 07:22 56.36356 12.47657 36177 ft 407 kts 218°
2026-04-14 07:23 56.32014 12.41100 36170 ft 407 kts 218°
2026-04-14 07:23 56.27671 12.34569 36166 ft 407 kts 218°
2026-04-14 07:24 56.23329 12.28044 36157 ft 407 kts 218°
2026-04-14 07:24 56.18988 12.21530 36153 ft 407 kts 218°
2026-04-14 07:25 56.14643 12.15039 36146 ft 406 kts 218°
2026-04-14 07:25 56.11027 12.09661 36140 ft 406 kts 218°
2026-04-14 07:26 56.06675 12.03209 36143 ft 406 kts 218°
2026-04-14 07:26 56.02318 11.96771 36165 ft 406 kts 218°
2026-04-14 07:27 55.97933 11.88077 36151 ft 408 kts 232°
2026-04-14 07:27 55.95205 11.81124 36139 ft 408 kts 232°
2026-04-14 07:28 55.91926 11.72872 36137 ft 408 kts 232°
2026-04-14 07:28 55.88643 11.64644 36134 ft 407 kts 232°
2026-04-14 07:29 55.85354 11.56417 36123 ft 407 kts 232°
2026-04-14 07:29 55.82059 11.48222 36123 ft 407 kts 232°
2026-04-14 07:30 55.78766 11.40032 36120 ft 407 kts 232°
2026-04-14 07:30 55.75474 11.31849 36119 ft 407 kts 232°
2026-04-14 07:31 55.72172 11.23683 36140 ft 407 kts 231°
2026-04-14 07:31 55.68860 11.15532 36128 ft 408 kts 231°
2026-04-14 07:32 55.65563 11.07438 36122 ft 408 kts 231°
2026-04-14 07:32 55.62242 10.99299 36115 ft 408 kts 231°
2026-04-14 07:33 55.58914 10.91168 36115 ft 408 kts 231°
2026-04-14 07:33 55.55575 10.83068 36110 ft 408 kts 231°
2026-04-14 07:34 55.48884 10.66899 36100 ft 408 kts 231°
2026-04-14 07:35 55.45533 10.58817 36100 ft 408 kts 231°
2026-04-14 07:35 55.42179 10.50758 36097 ft 408 kts 231°
2026-04-14 07:36 55.38815 10.42724 36094 ft 408 kts 231°
2026-04-14 07:36 55.35450 10.34676 36098 ft 408 kts 231°
2026-04-14 07:37 55.32075 10.26658 36099 ft 408 kts 231°
2026-04-14 07:37 55.28689 10.18655 36090 ft 408 kts 231°
2026-04-14 07:38 55.25299 10.10653 36086 ft 409 kts 231°
2026-04-14 07:38 55.21903 10.02662 36088 ft 409 kts 231°
2026-04-14 07:39 55.18496 9.94684 36094 ft 409 kts 231°
2026-04-14 07:39 55.15089 9.86707 36103 ft 410 kts 231°
2026-04-14 07:40 55.11666 9.78721 36092 ft 411 kts 231°
2026-04-14 07:40 55.08252 9.70787 36088 ft 412 kts 231°
2026-04-14 07:41 55.04805 9.62806 36086 ft 412 kts 231°
2026-04-14 07:41 55.01346 9.54833 36086 ft 412 kts 231°
2026-04-14 07:42 54.97880 9.46868 36084 ft 413 kts 231°
2026-04-14 07:42 54.94407 9.38907 36083 ft 413 kts 230°
2026-04-14 07:43 54.90931 9.30964 36075 ft 413 kts 230°
2026-04-14 07:43 54.87448 9.23039 36082 ft 413 kts 231°
2026-04-14 07:44 54.83333 9.16162 36068 ft 412 kts 216°
2026-04-14 07:44 54.78710 9.10284 36071 ft 412 kts 216°
2026-04-14 07:45 54.74084 9.04403 36073 ft 413 kts 216°
2026-04-14 07:45 54.69485 8.98556 36070 ft 413 kts 216°
2026-04-14 07:46 54.64852 8.92675 36061 ft 414 kts 217°
2026-04-14 07:46 54.60198 8.86820 36068 ft 414 kts 216°
2026-04-14 07:47 54.55538 8.80962 36077 ft 415 kts 217°
2026-04-14 07:47 54.50873 8.75104 36073 ft 415 kts 216°
2026-04-14 07:48 54.46207 8.69266 36086 ft 415 kts 216°
2026-04-14 07:48 54.41534 8.63437 36076 ft 415 kts 217°
2026-04-14 07:49 54.36856 8.57615 36077 ft 416 kts 217°
2026-04-14 07:49 54.32167 8.51807 36099 ft 416 kts 217°
2026-04-14 07:50 54.27470 8.45998 36092 ft 417 kts 217°
2026-04-14 07:50 54.22774 8.40170 36093 ft 417 kts 220°
2026-04-14 07:51 54.18496 8.33512 36082 ft 416 kts 224°
2026-04-14 07:51 54.14242 8.26794 36107 ft 417 kts 224°
2026-04-14 07:52 54.09986 8.20090 36112 ft 417 kts 224°
2026-04-14 07:52 54.05712 8.13404 36117 ft 417 kts 224°
2026-04-14 07:53 54.01432 8.06741 36122 ft 417 kts 224°
2026-04-14 07:53 53.97150 8.00085 36112 ft 417 kts 224°
2026-04-14 07:54 53.92868 7.93430 36118 ft 417 kts 224°
2026-04-14 07:54 53.88609 7.86829 36133 ft 418 kts 224°
2026-04-14 07:55 53.84316 7.80197 36132 ft 418 kts 224°
2026-04-14 07:55 53.80004 7.73582 36140 ft 418 kts 224°
2026-04-14 07:56 53.75691 7.66969 36141 ft 419 kts 224°
2026-04-14 07:56 53.71378 7.60357 36124 ft 419 kts 224°
2026-04-14 07:57 53.67053 7.53757 36135 ft 419 kts 224°
2026-04-14 07:57 53.62727 7.47166 36128 ft 419 kts 224°
2026-04-14 07:58 53.58390 7.40595 36129 ft 419 kts 224°
2026-04-14 07:58 53.54049 7.34041 36129 ft 420 kts 224°
2026-04-14 07:59 53.49702 7.27491 36115 ft 420 kts 224°
2026-04-14 07:59 53.45349 7.20946 36124 ft 420 kts 225°
2026-04-14 08:00 53.40991 7.14401 36136 ft 421 kts 225°
2026-04-14 08:00 53.36627 7.07860 36140 ft 421 kts 224°
2026-04-14 08:01 53.32252 7.01340 36145 ft 421 kts 224°
2026-04-14 08:01 53.27869 6.94832 36147 ft 421 kts 224°
2026-04-14 08:02 53.23515 6.88377 36165 ft 421 kts 224°
2026-04-14 08:02 53.19123 6.81892 36171 ft 422 kts 224°
2026-04-14 08:03 53.14724 6.75425 36176 ft 422 kts 224°
2026-04-14 08:03 53.10330 6.68963 36178 ft 422 kts 224°
2026-04-14 08:04 53.05933 6.62505 36163 ft 422 kts 224°
2026-04-14 08:04 53.01522 6.56056 36141 ft 423 kts 224°
2026-04-14 08:05 52.97095 6.49615 36145 ft 424 kts 224°
2026-04-14 08:05 52.92652 6.43172 36148 ft 424 kts 224°
2026-04-14 08:06 52.88207 6.36734 36151 ft 425 kts 224°
2026-04-14 08:06 52.83789 6.30332 36138 ft 425 kts 224°
2026-04-14 08:07 52.79330 6.23898 36138 ft 426 kts 224°
2026-04-14 08:07 52.74854 6.17477 36143 ft 427 kts 224°
2026-04-14 08:08 52.70369 6.11057 36147 ft 427 kts 224°
2026-04-14 08:08 52.65881 6.04646 36152 ft 427 kts 224°
2026-04-14 08:09 52.61387 5.98236 36138 ft 428 kts 224°
2026-04-14 08:09 52.56877 5.91828 36134 ft 429 kts 224°
2026-04-14 08:10 52.52348 5.85411 36135 ft 430 kts 224°
2026-04-14 08:10 52.47805 5.78996 36140 ft 431 kts 224°
2026-04-14 08:11 52.43253 5.72581 36146 ft 432 kts 224°
2026-04-14 08:11 52.38695 5.66181 36139 ft 432 kts 224°
2026-04-14 08:12 52.34123 5.59791 36155 ft 433 kts 224°
2026-04-14 08:12 52.29542 5.53396 36158 ft 433 kts 224°
2026-04-14 08:13 52.24959 5.47004 36164 ft 434 kts 224°
2026-04-14 08:13 52.20367 5.40622 36162 ft 434 kts 224°
2026-04-14 08:14 52.15811 5.34310 36144 ft 435 kts 224°
2026-04-14 08:14 52.11188 5.27925 36147 ft 436 kts 224°
2026-04-14 08:15 52.06555 5.21546 36153 ft 437 kts 224°
2026-04-14 08:15 52.01907 5.15163 36159 ft 438 kts 224°
2026-04-14 08:16 51.98034 5.09866 36171 ft 438 kts 224°
2026-04-14 08:16 51.93368 5.03506 36154 ft 438 kts 224°
2026-04-14 08:17 51.88689 4.97154 36164 ft 440 kts 223°
2026-04-14 08:17 51.83898 4.90984 36173 ft 441 kts 222°
2026-04-14 08:18 51.79039 4.84909 36183 ft 442 kts 222°
2026-04-14 08:18 51.74182 4.78825 36179 ft 442 kts 223°
2026-04-14 08:19 51.69343 4.72697 36171 ft 443 kts 223°
2026-04-14 08:19 51.64492 4.66552 36172 ft 444 kts 223°
2026-04-14 08:20 51.59628 4.60426 36162 ft 444 kts 223°
2026-04-14 08:20 51.54743 4.54310 36165 ft 445 kts 223°
2026-04-14 08:21 51.49860 4.48211 36165 ft 445 kts 223°
2026-04-14 08:21 51.44961 4.42117 36159 ft 446 kts 223°
2026-04-14 08:22 51.39930 4.36259 36153 ft 452 kts 214°
2026-04-14 08:22 51.34243 4.31842 36163 ft 455 kts 210°
2026-04-14 08:23 51.28524 4.27506 36185 ft 455 kts 210°
2026-04-14 08:23 51.22797 4.23156 36184 ft 456 kts 210°
2026-04-14 08:24 51.17057 4.18826 36183 ft 457 kts 208°
2026-04-14 08:24 51.11033 4.15382 36188 ft 461 kts 203°
2026-04-14 08:25 51.04967 4.12062 36193 ft 461 kts 203°
2026-04-14 08:25 50.98899 4.08737 36200 ft 461 kts 203°
2026-04-14 08:26 50.92864 4.05446 36202 ft 462 kts 203°
2026-04-14 08:26 50.86791 4.02139 36203 ft 461 kts 204°
2026-04-14 08:27 50.80826 3.98452 36195 ft 460 kts 207°
2026-04-14 08:27 50.74930 3.94517 36190 ft 460 kts 207°
2026-04-14 08:28 50.69016 3.90626 36187 ft 461 kts 206°
2026-04-14 08:28 50.63064 3.86837 36189 ft 461 kts 206°
2026-04-14 08:29 50.57100 3.83087 36176 ft 462 kts 206°
2026-04-14 08:29 50.51182 3.79168 36178 ft 461 kts 208°
2026-04-14 08:30 50.45311 3.75083 36187 ft 462 kts 208°
2026-04-14 08:30 50.39428 3.71018 36192 ft 462 kts 208°
2026-04-14 08:31 50.33524 3.67006 36170 ft 463 kts 208°
2026-04-14 08:31 50.24632 3.61021 36184 ft 464 kts 208°
2026-04-14 08:32 50.18699 3.57023 36202 ft 465 kts 208°
2026-04-14 08:32 50.12761 3.53040 36184 ft 465 kts 208°
2026-04-14 08:33 50.06854 3.49092 36184 ft 465 kts 208°
2026-04-14 08:33 50.00899 3.45117 36195 ft 466 kts 208°
2026-04-14 08:34 49.94943 3.41142 36194 ft 466 kts 208°
2026-04-14 08:34 49.88984 3.37182 36190 ft 466 kts 208°
2026-04-14 08:35 49.83014 3.33229 36189 ft 467 kts 207°
2026-04-14 08:35 49.77035 3.29290 36188 ft 467 kts 207°
2026-04-14 08:36 49.71055 3.25357 36195 ft 467 kts 207°
2026-04-14 08:36 49.65068 3.21417 36189 ft 468 kts 207°
2026-04-14 08:37 49.59070 3.17479 36187 ft 469 kts 207°
2026-04-14 08:37 49.53061 3.13544 36182 ft 469 kts 207°
2026-04-14 08:38 49.47196 3.09230 36171 ft 463 kts 218°
2026-04-14 08:38 49.41827 3.03779 36179 ft 463 kts 219°
2026-04-14 08:39 49.36450 2.98308 36189 ft 464 kts 219°
2026-04-14 08:39 49.31057 2.92841 36199 ft 465 kts 219°
2026-04-14 08:40 49.25660 2.87390 36194 ft 465 kts 219°
2026-04-14 08:40 49.20242 2.81946 36197 ft 466 kts 219°
2026-04-14 08:41 49.14821 2.76499 36211 ft 466 kts 219°
2026-04-14 08:41 49.09394 2.71064 36221 ft 467 kts 219°
2026-04-14 08:42 49.03958 2.65635 36216 ft 467 kts 218°
2026-04-14 08:42 48.98508 2.60213 36195 ft 468 kts 219°
2026-04-14 08:43 48.93048 2.54783 36204 ft 470 kts 219°
2026-04-14 08:43 48.87574 2.49344 36216 ft 470 kts 219°
2026-04-14 08:44 48.82086 2.43923 36220 ft 471 kts 219°
2026-04-14 08:44 48.76628 2.38559 36229 ft 471 kts 219°
2026-04-14 08:45 48.71125 2.33152 36231 ft 471 kts 219°
2026-04-14 08:45 48.65623 2.27750 36235 ft 471 kts 219°
2026-04-14 08:46 48.60112 2.22360 36223 ft 472 kts 218°
2026-04-14 08:46 48.54051 2.18294 36209 ft 485 kts 198°
2026-04-14 08:47 48.47436 2.16139 36209 ft 487 kts 195°
2026-04-14 08:47 48.40802 2.14016 36183 ft 488 kts 196°
2026-04-14 08:48 48.34155 2.11868 36193 ft 489 kts 196°
2026-04-14 08:48 48.27392 2.10507 36202 ft 495 kts 181°
2026-04-14 08:49 48.20524 2.11655 36205 ft 498 kts 173°
2026-04-14 08:49 48.13654 2.13104 36209 ft 498 kts 176°
2026-04-14 08:50 48.06745 2.13568 36243 ft 497 kts 180°
2026-04-14 08:50 47.99841 2.13968 36245 ft 496 kts 179°
2026-04-14 08:51 47.92942 2.14381 36241 ft 496 kts 179°
2026-04-14 08:51 47.86047 2.14797 36233 ft 496 kts 179°
2026-04-14 08:52 47.79152 2.15195 36230 ft 496 kts 179°
2026-04-14 08:52 47.72258 2.15578 36215 ft 496 kts 179°
2026-04-14 08:53 47.65362 2.15969 36217 ft 496 kts 179°
2026-04-14 08:53 47.58465 2.16372 36216 ft 496 kts 179°
2026-04-14 08:54 47.51567 2.16772 36213 ft 496 kts 179°
2026-04-14 08:54 47.44665 2.17175 36213 ft 496 kts 179°
2026-04-14 08:55 47.37760 2.17566 36213 ft 497 kts 179°
2026-04-14 08:55 47.30853 2.17959 36205 ft 497 kts 179°
2026-04-14 08:56 47.23941 2.18359 36210 ft 497 kts 179°
2026-04-14 08:56 47.17029 2.18759 36210 ft 497 kts 179°
2026-04-14 08:57 47.10126 2.18828 36210 ft 495 kts 188°
2026-04-14 08:57 47.03493 2.16517 36211 ft 488 kts 203°
2026-04-14 08:58 46.97103 2.13316 36207 ft 489 kts 202°
2026-04-14 08:58 46.90653 2.10122 36204 ft 489 kts 202°
2026-04-14 08:59 46.84201 2.06936 36205 ft 490 kts 202°
2026-04-14 08:59 46.77745 2.03740 36207 ft 490 kts 202°
2026-04-14 09:00 46.71287 2.00546 36177 ft 491 kts 202°
2026-04-14 09:00 46.64811 1.97358 36181 ft 492 kts 202°
2026-04-14 09:01 46.58324 1.94175 36187 ft 492 kts 202°
2026-04-14 09:01 46.51830 1.91001 36185 ft 493 kts 202°
2026-04-14 09:02 46.45321 1.87832 36189 ft 493 kts 202°
2026-04-14 09:02 46.38819 1.84675 36190 ft 493 kts 202°
2026-04-14 09:03 46.33403 1.82038 36192 ft 494 kts 202°
2026-04-14 09:03 46.26995 1.78542 36198 ft 488 kts 212°
2026-04-14 09:04 46.21503 1.73032 36197 ft 476 kts 227°
2026-04-14 09:04 46.16505 1.66741 36202 ft 477 kts 227°
2026-04-14 09:05 46.11482 1.60484 36202 ft 478 kts 227°
2026-04-14 09:05 46.06438 1.54242 36173 ft 478 kts 227°
2026-04-14 09:06 46.01400 1.47998 36179 ft 478 kts 227°
2026-04-14 09:06 45.96464 1.41620 36184 ft 472 kts 234°
2026-04-14 09:07 45.92797 1.34051 36182 ft 454 kts 251°
2026-04-14 09:07 45.89945 1.25939 36193 ft 456 kts 251°
2026-04-14 09:08 45.87064 1.17839 36163 ft 456 kts 251°
2026-04-14 09:08 45.84166 1.09755 36185 ft 455 kts 251°
2026-04-14 09:09 45.80747 1.02012 36190 ft 470 kts 236°
2026-04-14 09:09 45.75835 0.95634 36194 ft 480 kts 226°
2026-04-14 09:10 45.70703 0.89515 36201 ft 480 kts 226°
2026-04-14 09:10 45.65567 0.83389 36201 ft 481 kts 226°
2026-04-14 09:11 45.60425 0.77254 36186 ft 482 kts 227°
2026-04-14 09:11 45.55279 0.71129 36193 ft 482 kts 227°
2026-04-14 09:12 45.50120 0.65011 36206 ft 483 kts 226°
2026-04-14 09:12 45.44982 0.58941 36224 ft 483 kts 226°
2026-04-14 09:13 45.39805 0.52844 36221 ft 483 kts 226°
2026-04-14 09:13 45.34619 0.46755 36223 ft 483 kts 226°
2026-04-14 09:14 45.29438 0.40665 36226 ft 483 kts 226°
2026-04-14 09:14 45.24250 0.34588 36200 ft 484 kts 227°
2026-04-14 09:15 45.19046 0.28517 36214 ft 485 kts 227°
2026-04-14 09:15 45.13835 0.22445 36225 ft 485 kts 227°
2026-04-14 09:16 45.08617 0.16381 36228 ft 485 kts 227°
2026-04-14 09:16 45.03392 0.10327 36237 ft 486 kts 227°
2026-04-14 09:17 44.98162 0.04281 36235 ft 486 kts 227°
2026-04-14 09:17 44.92932 -0.01755 36197 ft 486 kts 227°
2026-04-14 09:18 44.87686 -0.07800 36204 ft 487 kts 227°
2026-04-14 09:18 44.82430 -0.13843 36214 ft 488 kts 227°
2026-04-14 09:19 44.77154 -0.19873 36222 ft 489 kts 227°
2026-04-14 09:19 44.71862 -0.25890 36228 ft 489 kts 227°
2026-04-14 09:20 44.66577 -0.31912 36231 ft 489 kts 227°
2026-04-14 09:20 44.61163 -0.37762 36233 ft 493 kts 223°
2026-04-14 09:21 44.55498 -0.43148 36237 ft 496 kts 220°
2026-04-14 09:21 44.49725 -0.48453 36236 ft 496 kts 220°
2026-04-14 09:22 44.44007 -0.53846 36237 ft 495 kts 221°
2026-04-14 09:22 44.38340 -0.59314 36232 ft 495 kts 222°
2026-04-14 09:23 44.32666 -0.64775 36234 ft 496 kts 221°
2026-04-14 09:23 44.26964 -0.70196 36236 ft 496 kts 221°
2026-04-14 09:24 44.21206 -0.75531 36240 ft 497 kts 220°
2026-04-14 09:24 44.15411 -0.80812 36207 ft 498 kts 220°
2026-04-14 09:25 44.09615 -0.86100 36215 ft 498 kts 220°
2026-04-14 09:25 44.03817 -0.91403 36225 ft 499 kts 220°
2026-04-14 09:26 43.98016 -0.96705 36219 ft 500 kts 220°
2026-04-14 09:26 43.92208 -1.01993 36222 ft 500 kts 220°
2026-04-14 09:27 43.86384 -1.07286 36223 ft 501 kts 220°
2026-04-14 09:27 43.80554 -1.12569 36230 ft 501 kts 220°
2026-04-14 09:28 43.74714 -1.17846 36196 ft 501 kts 220°
2026-04-14 09:28 43.68876 -1.23113 36210 ft 501 kts 220°
2026-04-14 09:29 43.63028 -1.28376 36222 ft 501 kts 220°
2026-04-14 09:29 43.57182 -1.33626 36224 ft 502 kts 220°
2026-04-14 09:30 43.51327 -1.38876 36219 ft 502 kts 220°
2026-04-14 09:30 43.45475 -1.44108 36223 ft 502 kts 220°
2026-04-14 09:31 43.39614 -1.49334 36223 ft 502 kts 220°
2026-04-14 09:31 43.33743 -1.54552 36193 ft 502 kts 219°
2026-04-14 09:32 43.27754 -1.59522 36210 ft 508 kts 210°
2026-04-14 09:32 43.20931 -1.62369 36205 ft 518 kts 190°
2026-04-14 09:33 43.17346 -1.62955 36217 ft 519 kts 189°
2026-04-14 09:33 43.10225 -1.64121 36222 ft 519 kts 189°
2026-04-14 09:34 43.03061 -1.65333 36201 ft 519 kts 189°
2026-04-14 09:34 42.95845 -1.66538 36198 ft 519 kts 189°
2026-04-14 09:35 42.88719 -1.67702 36205 ft 520 kts 189°
2026-04-14 09:35 42.81537 -1.68874 36204 ft 520 kts 189°
2026-04-14 09:36 42.74400 -1.70371 36220 ft 516 kts 199°
2026-04-14 09:36 42.67815 -1.73959 36220 ft 507 kts 212°
2026-04-14 09:37 42.61496 -1.78228 36217 ft 508 kts 212°
2026-04-14 09:37 42.55162 -1.82467 36204 ft 509 kts 212°
2026-04-14 09:38 42.48804 -1.86710 36210 ft 510 kts 212°
2026-04-14 09:38 42.42441 -1.90948 36178 ft 510 kts 212°
2026-04-14 09:39 42.36078 -1.95187 36213 ft 509 kts 212°
2026-04-14 09:39 42.29721 -1.99417 36218 ft 509 kts 212°
2026-04-14 09:40 42.23364 -2.03649 36215 ft 509 kts 212°
2026-04-14 09:40 42.17007 -2.07861 36207 ft 509 kts 212°
2026-04-14 09:41 42.10645 -2.12057 36202 ft 509 kts 211°
2026-04-14 09:41 42.04280 -2.16238 36195 ft 509 kts 211°
2026-04-14 09:42 41.97918 -2.20418 36197 ft 509 kts 212°
2026-04-14 09:42 41.91554 -2.24603 36197 ft 510 kts 212°
2026-04-14 09:43 41.85176 -2.28787 36187 ft 510 kts 211°
2026-04-14 09:43 41.78798 -2.32945 36196 ft 509 kts 211°
2026-04-14 09:44 41.72428 -2.37076 36203 ft 509 kts 211°
2026-04-14 09:44 41.66097 -2.41175 36205 ft 508 kts 211°
2026-04-14 09:45 41.59744 -2.45312 36207 ft 508 kts 212°
2026-04-14 09:45 41.53382 -2.49445 36201 ft 508 kts 211°
2026-04-14 09:46 41.47016 -2.53546 36205 ft 508 kts 211°
2026-04-14 09:46 41.40649 -2.57640 36211 ft 508 kts 211°
2026-04-14 09:47 41.34281 -2.61739 36219 ft 508 kts 212°
2026-04-14 09:47 41.28363 -2.66636 36208 ft 499 kts 222°
2026-04-14 09:48 41.22675 -2.71896 36210 ft 497 kts 221°
2026-04-14 09:48 41.16990 -2.77126 36222 ft 497 kts 221°
2026-04-14 09:49 41.11304 -2.82332 36218 ft 496 kts 221°
2026-04-14 09:49 41.05625 -2.87527 36216 ft 496 kts 221°
2026-04-14 09:50 40.99954 -2.92714 36210 ft 496 kts 221°
2026-04-14 09:50 40.94275 -2.97892 36207 ft 496 kts 221°
2026-04-14 09:51 40.89546 -3.02182 36209 ft 496 kts 221°
2026-04-14 09:51 40.83850 -3.07341 36190 ft 496 kts 221°
2026-04-14 09:52 40.78172 -3.12488 36210 ft 495 kts 221°
2026-04-14 09:52 40.72497 -3.17623 36221 ft 494 kts 221°
2026-04-14 09:53 40.66824 -3.22736 36238 ft 494 kts 221°
2026-04-14 09:53 40.61158 -3.27837 36252 ft 493 kts 221°
2026-04-14 09:54 40.55492 -3.32923 36256 ft 493 kts 221°
2026-04-14 09:54 40.49825 -3.38007 36266 ft 493 kts 221°
2026-04-14 09:55 40.44191 -3.43047 36263 ft 493 kts 220°
2026-04-14 09:55 40.38525 -3.48092 36244 ft 492 kts 220°
2026-04-14 09:56 40.32872 -3.53123 36231 ft 491 kts 220°
2026-04-14 09:56 40.27226 -3.58149 36261 ft 490 kts 220°
2026-04-14 09:57 40.21581 -3.63162 36260 ft 490 kts 220°
2026-04-14 09:57 40.15937 -3.68161 36255 ft 490 kts 220°
2026-04-14 09:58 40.10294 -3.73151 36245 ft 490 kts 220°
2026-04-14 09:58 40.04644 -3.78133 36230 ft 490 kts 220°
2026-04-14 09:59 39.98979 -3.83108 36214 ft 490 kts 220°
2026-04-14 09:59 39.93327 -3.88065 36226 ft 490 kts 220°
2026-04-14 10:00 39.87676 -3.93013 36228 ft 489 kts 220°
2026-04-14 10:00 39.82024 -3.97959 36241 ft 489 kts 220°
2026-04-14 10:01 39.76413 -4.02857 36238 ft 489 kts 220°
2026-04-14 10:01 39.70763 -4.07774 36229 ft 489 kts 220°
2026-04-14 10:02 39.65109 -4.12695 36233 ft 489 kts 220°
2026-04-14 10:02 39.59450 -4.17600 36234 ft 489 kts 220°
2026-04-14 10:03 39.53783 -4.22490 36237 ft 489 kts 220°
2026-04-14 10:03 39.48123 -4.27381 36230 ft 489 kts 220°
2026-04-14 10:04 39.42462 -4.32275 36235 ft 489 kts 220°
2026-04-14 10:04 39.36802 -4.37160 36240 ft 489 kts 220°
2026-04-14 10:05 39.31132 -4.42027 36240 ft 489 kts 220°
2026-04-14 10:05 39.25463 -4.46878 36240 ft 489 kts 220°
2026-04-14 10:06 39.19788 -4.51729 36245 ft 489 kts 220°
2026-04-14 10:06 39.14156 -4.56545 36248 ft 490 kts 220°
2026-04-14 10:07 39.08484 -4.61384 36233 ft 489 kts 219°
2026-04-14 10:07 39.05634 -4.63809 35438 ft 496 kts 219°
2026-04-14 10:07 39.02745 -4.66269 34797 ft 496 kts 219°
2026-04-14 10:07 38.99877 -4.68699 34329 ft 493 kts 218°
2026-04-14 10:08 38.97023 -4.71110 33791 ft 489 kts 218°
2026-04-14 10:08 38.94188 -4.73503 33293 ft 485 kts 218°
2026-04-14 10:08 38.91383 -4.75872 32794 ft 481 kts 218°
2026-04-14 10:08 38.88597 -4.78222 32300 ft 478 kts 218°
2026-04-14 10:09 38.85831 -4.80555 31803 ft 474 kts 218°
2026-04-14 10:09 38.83090 -4.82870 31324 ft 470 kts 218°
2026-04-14 10:09 38.80367 -4.85171 30846 ft 466 kts 218°
2026-04-14 10:09 38.77673 -4.87449 30381 ft 463 kts 219°
2026-04-14 10:10 38.74998 -4.89710 29877 ft 458 kts 219°
2026-04-14 10:10 38.72350 -4.91942 29446 ft 453 kts 218°
2026-04-14 10:10 38.69730 -4.94141 29006 ft 448 kts 218°
2026-04-14 10:10 38.67132 -4.96314 28553 ft 443 kts 218°
2026-04-14 10:11 38.64567 -4.98456 28155 ft 438 kts 218°
2026-04-14 10:11 38.62025 -5.00583 27736 ft 434 kts 218°
2026-04-14 10:11 38.59506 -5.02690 27315 ft 431 kts 218°
2026-04-14 10:11 38.57039 -5.04755 26916 ft 428 kts 218°
2026-04-14 10:12 38.54554 -5.06833 26507 ft 426 kts 218°
2026-04-14 10:12 38.52080 -5.08902 26080 ft 424 kts 218°
2026-04-14 10:12 38.49735 -5.11140 25657 ft 418 kts 226°
2026-04-14 10:12 38.47544 -5.13574 25230 ft 417 kts 226°
2026-04-14 10:13 38.45358 -5.16001 24790 ft 417 kts 225°
2026-04-14 10:13 38.43168 -5.18425 24343 ft 416 kts 225°
2026-04-14 10:13 38.40989 -5.20825 23957 ft 409 kts 225°
2026-04-14 10:13 38.38860 -5.23158 23400 ft 397 kts 225°
2026-04-14 10:14 38.36798 -5.25415 22985 ft 388 kts 225°
2026-04-14 10:14 38.34764 -5.27650 22550 ft 385 kts 225°
2026-04-14 10:14 38.32741 -5.29876 22120 ft 383 kts 225°
2026-04-14 10:14 38.30735 -5.32085 21694 ft 380 kts 225°
2026-04-14 10:15 38.28741 -5.34277 21258 ft 378 kts 225°
2026-04-14 10:15 38.26759 -5.36450 20849 ft 375 kts 225°
2026-04-14 10:15 38.24786 -5.38611 20425 ft 373 kts 225°
2026-04-14 10:15 38.22822 -5.40761 19998 ft 372 kts 225°
2026-04-14 10:16 38.20867 -5.42899 19575 ft 370 kts 225°
2026-04-14 10:16 38.18914 -5.45033 19150 ft 369 kts 225°
2026-04-14 10:16 38.16997 -5.47127 18735 ft 368 kts 225°
2026-04-14 10:16 38.15062 -5.49242 18281 ft 367 kts 224°
2026-04-14 10:17 38.13134 -5.51346 17852 ft 364 kts 224°
2026-04-14 10:17 38.11220 -5.53435 17432 ft 361 kts 224°
2026-04-14 10:17 38.09324 -5.55505 17017 ft 358 kts 224°
2026-04-14 10:17 38.07439 -5.57561 16602 ft 356 kts 224°
2026-04-14 10:18 38.03707 -5.61620 15798 ft 351 kts 224°
2026-04-14 10:18 38.01858 -5.63627 15399 ft 349 kts 224°
2026-04-14 10:18 38.00013 -5.65627 14997 ft 348 kts 224°
2026-04-14 10:19 37.98180 -5.67613 14583 ft 346 kts 224°
2026-04-14 10:19 37.96354 -5.69593 14194 ft 345 kts 224°
2026-04-14 10:19 37.94534 -5.71567 13768 ft 344 kts 224°
2026-04-14 10:19 37.92721 -5.73528 13369 ft 341 kts 223°
2026-04-14 10:20 37.90922 -5.75472 12974 ft 339 kts 223°
2026-04-14 10:20 37.89138 -5.77401 12585 ft 336 kts 223°
2026-04-14 10:20 37.87364 -5.79320 12197 ft 334 kts 223°
2026-04-14 10:20 37.85601 -5.81226 11807 ft 333 kts 223°
2026-04-14 10:21 37.83846 -5.83118 11421 ft 331 kts 223°
2026-04-14 10:21 37.82098 -5.85002 11034 ft 330 kts 223°
2026-04-14 10:21 37.80355 -5.86880 10715 ft 326 kts 223°
2026-04-14 10:21 37.78664 -5.88702 10458 ft 313 kts 223°
2026-04-14 10:22 37.77015 -5.90477 9896 ft 308 kts 223°
2026-04-14 10:22 37.75402 -5.92210 9512 ft 303 kts 223°
2026-04-14 10:22 37.73795 -5.93935 9153 ft 302 kts 222°
2026-04-14 10:22 37.72195 -5.95653 8793 ft 302 kts 222°
2026-04-14 10:23 37.70609 -5.97357 8430 ft 295 kts 222°
2026-04-14 10:23 37.69068 -5.99013 8091 ft 289 kts 222°
2026-04-14 10:23 37.67535 -6.00661 7745 ft 290 kts 221°
2026-04-14 10:23 37.66026 -6.02342 7398 ft 290 kts 224°
2026-04-14 10:24 37.64600 -6.04098 7034 ft 290 kts 226°
2026-04-14 10:24 37.63126 -6.05834 6714 ft 289 kts 222°
2026-04-14 10:24 37.61587 -6.07425 6140 ft 286 kts 218°
2026-04-14 10:24 37.59985 -6.08857 5710 ft 278 kts 214°
2026-04-14 10:25 37.58371 -6.10111 5379 ft 268 kts 211°
2026-04-14 10:25 37.56752 -6.11188 5051 ft 260 kts 206°
2026-04-14 10:25 37.55098 -6.12118 4714 ft 261 kts 203°
2026-04-14 10:25 37.53406 -6.12950 4373 ft 262 kts 200°
2026-04-14 10:26 37.51679 -6.13678 4033 ft 262 kts 197°
2026-04-14 10:26 37.49915 -6.14280 3700 ft 263 kts 193°
2026-04-14 10:26 37.48112 -6.14664 3509 ft 260 kts 180°
2026-04-14 10:26 37.46395 -6.14447 3497 ft 237 kts 163°
2026-04-14 10:27 37.44908 -6.13726 3446 ft 225 kts 147°
2026-04-14 10:27 37.43651 -6.12597 3322 ft 220 kts 132°
2026-04-14 10:27 37.42683 -6.11157 3159 ft 210 kts 118°
2026-04-14 10:27 37.42050 -6.09554 2963 ft 201 kts 104°
2026-04-14 10:28 37.41745 -6.07861 2700 ft 196 kts 91°
2026-04-14 10:28 37.41718 -6.06168 2438 ft 191 kts 85°
2026-04-14 10:28 37.41728 -6.04513 2203 ft 189 kts 85°
2026-04-14 10:28 37.41737 -6.02863 1935 ft 187 kts 86°
2026-04-14 10:29 37.41743 -6.01302 1704 ft 172 kts 85°
2026-04-14 10:29 37.41748 -5.99884 1480 ft 152 kts 86°
2026-04-14 10:29 37.41754 -5.98614 1285 ft 141 kts 86°
2026-04-14 10:29 37.41760 -5.97402 1093 ft 136 kts 85°
2026-04-14 10:30 37.41766 -5.96215 913 ft 136 kts 86°
2026-04-14 10:30 37.41771 -5.95059 735 ft 131 kts 85°
2026-04-14 10:30 37.41776 -5.93895 570 ft 135 kts 88°
2026-04-14 10:30 37.41781 -5.92734 374 ft 131 kts 87°
2026-04-14 10:31 37.41791 -5.91580 195 ft 133 kts 86°
2026-04-14 10:31 37.41792 -5.90449 99 ft 118 kts 89°
2026-04-14 10:31 37.41794 -5.89620 98 ft 76 kts 90°
2026-04-14 10:31 37.41807 -5.89259 101 ft 19 kts 51°
2026-04-14 10:32 37.41888 -5.89289 100 ft 14 kts 326°
2026-04-14 10:32 37.41981 -5.89362 99 ft 17 kts 328°
2026-04-14 10:32 37.42076 -5.89477 98 ft 21 kts 314°
2026-04-14 10:32 37.42179 -5.89609 95 ft 19 kts 315°
2026-04-14 10:33 37.42260 -5.89722 94 ft 15 kts 293°
2026-04-14 10:33 37.42210 -5.89825 94 ft 10 kts 223°
2026-04-14 10:33 37.42225 -5.89887 94 ft 7 kts 315°
2026-04-14 10:33 37.42245 -5.89914 96 ft 0 kts 314°